カタログに戻る

USA 441

運用中軍事VLEO
NORAD 62340·PAYLOAD·🇺🇸 United States

打ち上げ Dec 17, 2024 から Vandenberg Space Force Base

Loading…

次のパス (今後24時間)

TLE

古いSource: Mike McCants

元期: Aug 12, 2026, 22:20 UTC

1 62340U 24243A   26224.93124684 0.00000000  00000-0  00000-0 0    06
2 62340  70.0230 154.3919 0003000 187.8533 172.1466 14.96713884    07

AllMySatでUSA 441をリアルタイム追跡

Download on the App Store